Location: Gad�tanya
(48.0500°N, 20.8500°E)
Time: 11:52:05
(UTC+00:00)

NOSS 3-3 (A) - Pass Details

Date: 05 July 2020
Orbit: 825 x 1387 km, 63.4° (Epoch: 09 August)

Event Time Altitude Azimuth Distance (km) Brightness Sun altitude
Rises 20:27:15 0° 210° (SSW) 3,406 6.6 -13.1°
Reaches altitude 10° 20:29:36 10° 208° (SSW) 2,514 5.9 -13.4°
Maximum altitude 20:35:22 71° 126° (SE) 990 3.9 -13.8°
Drops below altitude 10° 20:41:57 10° 44° (NE) 2,848 6.7 -14.4°
Sets 20:44:46 0° 42° (NE) 3,893 7.4 -14.6°
